Hundvaag 1 weather for Sep 2002
Month no. 183
Obs.
Da.
Temp. Dew Point Precip. Wind
Speed
Wind gusts Cloud cover Press. Humidity Wind dir. Sunny OPT
01.09.2002 14,8   15,4     4 1019,0     1  
02.09.2002 13,5   0,1     2 1020,3     1  
03.09.2002 13,1   0,0     6 1006,7     1  
04.09.2002 12,9   0,0     10 1014,9     1  
05.09.2002 14,5   16,6     3 1007,2     1  
06.09.2002 13,1   12,6     2 1007,4        
07.09.2002 14,2   3,9     6 1005,4     1  
08.09.2002 17,3   6,1     2 1011,3     1  
09.09.2002 16,2   0,2     10 1016,0     1  
10.09.2002 16,8   0,0     10 1016,0     1  
11.09.2002 14,7   0,0     10 1020,0     1  
12.09.2002 17,0   0,0     10 1019,9     1  
13.09.2002 15,6   0,0     0 1020,6     1  
14.09.2002 14,7   0,0     8 1018,9     1  
15.09.2002 14,6   0,0     3 1019,9     1  
16.09.2002 14,0   0,0     2 1016,0        
17.09.2002 13,3   0,0     3 1014,0     1  
18.09.2002 12,4   0,4     3 1013,5     1  
19.09.2002 10,6   0,0     10 1014,1        
20.09.2002 10,3   4,7     7 1012,8     1  
21.09.2002 11,1   4,0     0 1013,8     1  
22.09.2002 11,3   0,0     10 1014,6     1  
23.09.2002 9,1   0,0     3 1018,6     1  
24.09.2002 10,8   3,8     1 1018,4     1  
25.09.2002 12,7   1,5     1 1014,6        
26.09.2002 11,1   0,6     3 1012,0     1  
27.09.2002 10,6   0,3     1 1015,8        
28.09.2002 13,7   2,1     3 1018,7        
29.09.2002 15,1   0,0     4 1020,6     1  
30.09.2002 12,9   0,0     0 1017,1     1  
                       
Avrg/Sum 13,4   72,3     4,6 1015,3     24